TimeMDT,TemperatureF,Dew PointF,Humidity,Sea Level PressureIn,VisibilityMPH,Wind Direction,Wind SpeedMPH,Gust SpeedMPH,PrecipitationIn,Events,Conditions,WindDirDegrees,DateUTC
12:53 AM,21.0,10.0,63,30.37,10.0,SSE,8.1,-,N/A,,Clear,160,2013-03-20 06:53:00
1:53 AM,21.0,10.9,65,30.34,10.0,SSE,9.2,-,N/A,,Clear,150,2013-03-20 07:53:00
2:53 AM,19.9,10.9,68,30.31,10.0,SE,6.9,-,N/A,,Clear,140,2013-03-20 08:53:00
3:53 AM,19.0,10.9,71,30.28,10.0,SSE,6.9,-,N/A,,Clear,150,2013-03-20 09:53:00
4:53 AM,19.9,10.9,68,30.23,10.0,SE,6.9,-,N/A,,Clear,130,2013-03-20 10:53:00
5:53 AM,19.0,10.9,71,30.21,10.0,SE,9.2,-,N/A,,Clear,140,2013-03-20 11:53:00
6:53 AM,19.9,10.9,68,30.18,10.0,SE,5.8,-,N/A,,Clear,130,2013-03-20 12:53:00
7:53 AM,21.9,12.9,68,30.14,10.0,SE,8.1,-,N/A,,Clear,130,2013-03-20 13:53:00
8:53 AM,28.0,16.0,61,30.10,10.0,SE,15.0,-,N/A,,Clear,140,2013-03-20 14:53:00
9:53 AM,32.0,17.1,54,30.06,10.0,SSE,13.8,21.9,N/A,,Clear,150,2013-03-20 15:53:00
10:53 AM,37.0,18.0,46,30.02,10.0,SE,17.3,-,N/A,,Clear,140,2013-03-20 16:53:00
11:53 AM,43.0,18.0,37,29.97,10.0,North,-9999.0,-,N/A,,Clear,0,2013-03-20 17:53:00
12:53 PM,48.0,17.1,29,29.92,8.0,SE,21.9,31.1,N/A,,Clear,140,2013-03-20 18:53:00
1:53 PM,51.1,16.0,25,29.87,10.0,SE,20.7,29.9,N/A,,Clear,130,2013-03-20 19:53:00
2:53 PM,51.1,12.9,22,29.83,10.0,SE,20.7,25.3,N/A,,Overcast,130,2013-03-20 20:53:00
3:53 PM,51.1,10.9,20,29.81,10.0,SE,18.4,26.5,N/A,,Scattered Clouds,130,2013-03-20 21:53:00
4:53 PM,51.1,8.1,18,29.78,10.0,SE,18.4,27.6,N/A,,Overcast,140,2013-03-20 22:53:00
5:53 PM,50.0,3.9,15,29.77,10.0,SE,13.8,25.3,N/A,,Overcast,130,2013-03-20 23:53:00
6:53 PM,48.9,8.1,19,29.75,10.0,SE,11.5,20.7,N/A,,Overcast,130,2013-03-21 00:53:00
7:53 PM,46.9,9.0,21,29.74,10.0,ESE,13.8,18.4,N/A,,Overcast,120,2013-03-21 01:53:00
8:53 PM,45.0,10.9,25,29.72,10.0,ESE,15.0,21.9,N/A,,Mostly Cloudy,120,2013-03-21 02:53:00
9:53 PM,42.1,10.0,27,29.71,10.0,ESE,12.7,23.0,N/A,,Clear,120,2013-03-21 03:53:00
10:53 PM,39.9,10.0,29,29.70,10.0,SE,13.8,23.0,N/A,,Clear,130,2013-03-21 04:53:00